User: anonymous   Login
Location: Stoke Bliss
(52.2667°N, 2.5167°W)
Time: 00:51:16
(UTC+00:00)
Language:

COSMOS 2428 - Orbit

View from above orbital plane
View from above orbital plane
View from above satellite
View from above satellite

Ground track
Ground track

The orbit data is extracted from the following two-line orbital elements,

1 31792U 07029A   21138.72896149  .00000261  00000-0  16798-3 0  9994
2 31792  70.8961 288.4384 0010432 272.6557  87.3369 14.12265877716201
Epoch (UTC): 18 May 2021 17:29:42
Eccentricity: 0.0010432
inclination: 70.8961°
perigee height: 844 km
apogee height: 859 km
right ascension of ascending node: 288.4384°
argument of perigee: 272.6557°
revolutions per day: 14.12265877
mean anomaly at epoch: 87.3369°
orbit number at epoch: 71620

The dashed part of the orbit path shows where the satellite is in the earth's shadow,  

DLR